Back to catalog

COSMOS 886 DEB

AliveLEO
NORAD 9951·DEBRIS·🇷🇺 Russia

Launched Dec 27, 1976 from Baikonur Cosmodrome

Loading…

Next Passes (next 24 hours)

TLE

FreshSource: Space-Track

Epoch: Sep 13, 2026, 10:16 UTC

1 09951U 76126AR  26256.42820170  .00001304  00000-0  50746-3 0  9994
2 09951  65.8180 259.5933 0771960  53.5648 313.4069 13.32465441 71682

Track COSMOS 886 DEB in real time with AllMySat

Download on the App Store